Weather History for Joliet, IL

Change the Weather History Date:

Tuesday, August 19, 2014

  Actual Average (KLOT) Record (KLOT)
Temperature  
Mean Temperature 74 °F 72 °F  
Max Temperature 82 °F 82 °F 91 °F (1995)
Min Temperature 65 °F 63 °F 51 °F (1992)
Degree Days  
Heating Degree Days 0 0  
Month to date heating degree days 0  
Since 1 June heating degree days 35  
Since 1 July heating degree days 2  
Cooling Degree Days 8 7  
Month to date cooling degree days 151  
Year to date cooling degree days 671  
Since 1 June cooling degree days 613  
Growing Degree Days 24 (Base 50)    
Moisture  
Dew Point 66 °F    
Average Humidity 78    
Maximum Humidity 94    
Minimum Humidity 51    
Precipitation  
Precipitation 0.18 in 0.12 in 0.84 in (2007)
Month to date precipitation 2.57  
Year to date precipitation 26.32  
Sea Level Pressure  
Sea Level Pressure 29.77 in    
Wind  
Wind Speed 4 mph (SW)    
Max Wind Speed 16 mph    
Max Gust Speed 28 mph    
Visibility 8 miles    
Events Rain , Thunderstorm    
T = Trace of Precipitation, MM = Missing Value Source: NWS Daily Summary

Daily Weather History Graph

Daily Weather History Graph

Search for Another Location

Airport:

Trip Planner

Search our weather history database for the weather conditions in past years. The results will help you decide how hot, cold, wet, or windy it might be!

Date:

Astronomy

Aug. 19, 2014 Rise Set
Actual Time 6:05 AM CDT 7:46 PM CDT
Civil Twilight 5:36 AM CDT 8:15 PM CDT
Nautical Twilight 5:00 AM CDT 8:51 PM CDT
Astronomical Twilight 4:22 AM CDT 9:29 PM CDT
Moon 12:56 AM CDT (8/19) 3:43 PM CDT (8/19)
Length of Visible Light 14h 39m
Length of Day
13h 40m
Waning Crescent, 29% of the Moon is Illuminated
Aug 19
Waning Crescent
Aug 25
New
Sep 2
First Quarter
Sep 8
Full
Sep 15
Last Quarter

Hourly Weather History & Observations

Time (CDT) Temp. Heat Index Dew Point Humidity Pressure Visibility Wind Dir Wind Speed Gust Speed Precip Events Conditions
12:15 AM 68.0 °F - 66.0 °F 93% 29.81 in 4.0 mi Calm Calm - N/A   Clear
12:35 AM 69.1 °F - 66.4 °F 91% 29.80 in 5.0 mi South 4.6 mph - N/A   Clear
12:55 AM 70.0 °F - 66.9 °F 90% 29.81 in 5.0 mi Calm Calm - N/A   Clear
1:15 AM 68.9 °F - 66.6 °F 92% 29.81 in 3.0 mi Calm Calm - N/A   Clear
1:35 AM 68.0 °F - 66.2 °F 94% 29.78 in 3.0 mi South 4.6 mph - N/A   Clear
1:55 AM 68.7 °F - 66.2 °F 92% 29.78 in 4.0 mi South 3.5 mph - N/A   Clear
2:15 AM 69.3 °F - 66.6 °F 91% 29.78 in 4.0 mi Calm Calm - N/A   Clear
2:35 AM 68.5 °F - 66.2 °F 92% 29.78 in 3.0 mi Calm Calm - N/A   Mist
2:55 AM 68.7 °F - 66.4 °F 92% 29.78 in 4.0 mi Calm Calm - N/A   Clear
3:15 AM 68.2 °F - 66.2 °F 93% 29.78 in 4.0 mi Calm Calm - N/A   Scattered Clouds
3:35 AM 69.1 °F - 66.4 °F 91% 29.78 in 5.0 mi SSW 3.5 mph - N/A   Scattered Clouds
3:55 AM 69.1 °F - 66.4 °F 91% 29.77 in 5.0 mi SSW 3.5 mph - N/A   Scattered Clouds
4:15 AM 69.8 °F - 66.6 °F 89% 29.78 in 7.0 mi SW 3.5 mph - N/A   Scattered Clouds
4:35 AM 69.8 °F - 66.6 °F 89% 29.78 in 7.0 mi South 4.6 mph - N/A   Scattered Clouds
4:55 AM 69.4 °F - 66.4 °F 90% 29.76 in 5.0 mi South 5.8 mph - N/A   Scattered Clouds
5:15 AM 69.8 °F - 66.4 °F 89% 29.76 in 7.0 mi SSW 3.5 mph - N/A   Clear
5:35 AM 70.0 °F - 66.6 °F 89% 29.76 in 7.0 mi SSW 3.5 mph - N/A   Clear
5:55 AM 69.8 °F - 66.7 °F 90% 29.75 in 5.0 mi South 4.6 mph - N/A   Clear
6:15 AM 69.8 °F - 66.4 °F 89% 29.76 in 5.0 mi South 4.6 mph - N/A   Clear
6:35 AM 69.3 °F - 66.4 °F 91% 29.78 in 5.0 mi SSW 3.5 mph - N/A   Scattered Clouds
6:55 AM 69.8 °F - 67.1 °F 91% 29.78 in 5.0 mi South 4.6 mph - N/A   Mostly Cloudy
7:15 AM 70.7 °F - 67.3 °F 89% 29.77 in 7.0 mi South 4.6 mph - N/A   Scattered Clouds
7:35 AM 71.6 °F - 67.5 °F 87% 29.77 in 7.0 mi South 6.9 mph - N/A   Clear
7:55 AM 72.7 °F - 68.0 °F 85% 29.77 in 10.0 mi SSW 6.9 mph - N/A   Clear
8:15 AM 73.0 °F - 68.0 °F 84% 29.76 in 10.0 mi SSW 6.9 mph - N/A   Scattered Clouds
8:35 AM 73.6 °F - 67.6 °F 82% 29.77 in 10.0 mi SW 8.1 mph - N/A   Scattered Clouds
8:55 AM 74.3 °F - 68.0 °F 81% 29.76 in 10.0 mi SW 9.2 mph - N/A   Scattered Clouds
9:15 AM 77.0 °F - 68.7 °F 75% 29.76 in 10.0 mi SW 6.9 mph - N/A   Clear
9:35 AM 77.9 °F - 68.9 °F 74% 29.76 in 10.0 mi SW 9.2 mph - N/A   Clear
9:55 AM 78.6 °F - 69.3 °F 73% 29.77 in 10.0 mi SW 9.2 mph - N/A   Clear
10:15 AM 78.8 °F - 68.9 °F 72% 29.77 in 10.0 mi SSW 11.5 mph 16.1 mph N/A   Clear
10:35 AM 78.8 °F - 69.1 °F 72% 29.77 in 10.0 mi SW 10.4 mph - N/A   Clear
10:55 AM 79.5 °F - 68.7 °F 69% 29.77 in 10.0 mi SW 12.7 mph 21.9 mph N/A   Clear
11:15 AM 79.7 °F - 68.9 °F 69% 29.76 in 10.0 mi SSW 15.0 mph 19.6 mph N/A   Clear
11:35 AM 78.8 °F - 68.7 °F 71% 29.77 in 10.0 mi SW 15.0 mph 21.9 mph N/A   Clear
11:55 AM 77.5 °F - 68.4 °F 73% 29.78 in 10.0 mi SW 11.5 mph 19.6 mph N/A Thunderstorm Scattered Clouds
12:15 PM 71.2 °F - 67.3 °F 87% 29.79 in 1.5 mi WSW 16.1 mph 27.6 mph 0.18 in Rain , Thunderstorm Heavy Thunderstorms and Rain
12:35 PM 70.9 °F - 68.0 °F 91% 29.79 in 10.0 mi SW 9.2 mph 17.3 mph 0.18 in   Scattered Clouds
12:55 PM 71.1 °F - 66.9 °F 87% 29.78 in 10.0 mi SW 11.5 mph 19.6 mph 0.18 in   Scattered Clouds
1:15 PM 72.0 °F - 66.6 °F 83% 29.78 in 10.0 mi WSW 9.2 mph 17.3 mph N/A   Mostly Cloudy
1:35 PM 72.1 °F - 66.2 °F 82% 29.76 in 10.0 mi WSW 8.1 mph - N/A   Scattered Clouds
1:55 PM 74.7 °F - 66.6 °F 76% 29.75 in 10.0 mi WSW 5.8 mph - N/A   Clear
2:15 PM 77.4 °F - 65.1 °F 66% 29.74 in 10.0 mi West 9.2 mph - N/A   Clear
2:35 PM 79.5 °F - 64.4 °F 60% 29.73 in 10.0 mi West 6.9 mph - N/A   Clear
2:55 PM 80.1 °F 81.2 °F 62.2 °F 54% 29.73 in 10.0 mi West 10.4 mph 17.3 mph N/A   Clear
3:15 PM 80.1 °F 81.4 °F 62.4 °F 55% 29.73 in 10.0 mi WSW 6.9 mph - N/A   Clear
3:35 PM 81.0 °F 82.2 °F 62.8 °F 54% 29.72 in 10.0 mi WSW 8.1 mph - N/A   Clear
3:55 PM 80.6 °F 81.8 °F 62.6 °F 54% 29.73 in 10.0 mi SW 8.1 mph - N/A   Clear
4:15 PM 81.5 °F 82.7 °F 62.8 °F 53% 29.73 in 10.0 mi SW 10.4 mph 16.1 mph N/A   Clear
4:35 PM 81.7 °F 82.9 °F 62.8 °F 53% 29.73 in 10.0 mi SW 8.1 mph - N/A   Clear
4:55 PM 81.9 °F 82.8 °F 62.1 °F 51% 29.74 in 10.0 mi WSW 9.2 mph - N/A   Clear
5:15 PM 82.4 °F 83.5 °F 63.0 °F 52% 29.74 in 10.0 mi SW 6.9 mph - N/A   Clear
5:35 PM 81.9 °F 83.1 °F 63.3 °F 53% 29.74 in 10.0 mi SW 4.6 mph - N/A   Clear
5:55 PM 81.3 °F 82.9 °F 64.2 °F 56% 29.74 in 10.0 mi SW 5.8 mph - N/A   Clear
6:15 PM 80.1 °F 81.9 °F 65.1 °F 60% 29.74 in 10.0 mi SSW 5.8 mph - N/A   Clear
6:35 PM 79.3 °F - 65.7 °F 63% 29.73 in 10.0 mi SW 3.5 mph - N/A   Scattered Clouds
6:55 PM 79.7 °F - 66.6 °F 64% 29.74 in 10.0 mi Calm Calm - N/A   Scattered Clouds
7:15 PM 79.3 °F - 66.7 °F 65% 29.74 in 10.0 mi SW 4.6 mph - N/A   Clear
7:35 PM 79.3 °F - 66.7 °F 65% 29.74 in 10.0 mi SW 3.5 mph - N/A   Clear
7:55 PM 78.4 °F - 66.2 °F 66% 29.74 in 10.0 mi WSW 3.5 mph - N/A   Clear
8:15 PM 77.2 °F - 65.8 °F 68% 29.75 in 10.0 mi Calm Calm - N/A   Clear
8:35 PM 76.5 °F - 65.8 °F 70% 29.76 in 10.0 mi WSW 3.5 mph - N/A   Clear
8:55 PM 75.4 °F - 66.4 °F 73% 29.76 in 10.0 mi Calm Calm - N/A   Clear
9:15 PM 73.9 °F - 66.4 °F 77% 29.77 in 10.0 mi SW 3.5 mph - N/A   Clear
9:35 PM 73.4 °F - 66.2 °F 78% 29.78 in 10.0 mi Calm Calm - N/A   Clear
9:55 PM 70.9 °F - 65.7 °F 83% 29.79 in 10.0 mi Calm Calm - N/A   Clear
10:15 PM 68.0 °F - 64.9 °F 90% 29.79 in 10.0 mi Calm Calm - N/A   Clear
10:35 PM 67.5 °F - 65.3 °F 93% 29.80 in 7.0 mi Calm Calm - N/A   Clear
10:55 PM 66.9 °F - 64.8 °F 93% 29.80 in 10.0 mi Calm Calm - N/A   Clear
11:15 PM 66.6 °F - 64.8 °F 94% 29.80 in 10.0 mi Calm Calm - N/A   Clear
11:35 PM 65.8 °F - 64.2 °F 94% 29.81 in 5.0 mi Calm Calm - N/A   Clear
11:55 PM 65.3 °F - 63.7 °F 94% 29.81 in 7.0 mi Calm Calm - N/A   Clear